Regional Weather Roundup
Issued by NWS Charleston, SC

Current Version | Previous Version | Text Only | Print | Product List | Glossary Off
Versions: 1 2 3 4 5 6 7 8 9 10 11 12 13 14 15 16 17 18 19 20 21 22 23 24 25 26 27 28 29 30 31 32 33 34 35 36 37 38 39 40 41 42 43 44 45 46 47 48 49 50

000
ASUS42 KCHS 040028
RWRCHS

REGIONAL WEATHER ROUNDUP
NATIONAL WEATHER SERVICE CHARLESTON SC
800 PM EDT TUE MAY 03 2016

NOTE: "FAIR" INDICATES FEW OR NO CLOUDS BELOW 12,000 FEET WITH NO
SIGNIFICANT WEATHER AND/OR OBSTRUCTIONS TO VISIBILITY.

NOT ALL STATIONS ARE QUALITY CONTROLLED. USE DATA WITH CAUTION...
ESPECIALLY DEWPOINT OBSERVATIONS.

SCZ027-030-031-034>040-042>050-040100-
...SOUTHEAST SOUTH CAROLINA...

CITY           SKY/WX    TMP DP  RH WIND       PRES   REMARKS
N CHARLESTON   CLOUDY    80  65  59 W10       29.79R
6HR MIN TEMP:  80; 6HR MAX TEMP:  88; 6HR PCP: TRACE;

WATERFRONT PRK   N/A     77  72  84 SW6       29.76R
MOUNT PLEASANT   N/A     77  72  83 S3        29.79S
JOHNS ISLAND   FAIR      73  72  94 SW6       29.80R
PINOPOLIS        N/A     82  70  65 W10       29.71R
MONCKS CORNER  FAIR      73  61  64 SW6       29.78S
SUMMERVILLE    FAIR      75  68  78 CALM      29.79S
BEAUFORT MCAS  MOCLDY    77  63  61 NW6       29.79S THUNDER
6HR MIN TEMP:  76; 6HR MAX TEMP:  88;

BEAUFORT ARPT  LGT RAIN  72  64  78 NE7       29.78S
HILTON HEAD IS CLOUDY    79  72  78 SW3       29.80S
WALTERBORO     PTCLDY    77  73  88 NW3       29.80F
ALLENDALE      MOCLDY    72  68  88 CALM      29.79S THUNDER

...SOUTHERN MIDLANDS AND PEE DEE...

CITY           SKY/WX    TMP DP  RH WIND       PRES   REMARKS
GEORGETOWN     FAIR      73  70  88 S6        29.79R
KINGSTREE      FAIR      77  64  65 CALM      29.76S
ORANGEBURG     PTCLDY    78  65  63 SW7       29.77S
6HR MIN TEMP:  78; 6HR MAX TEMP:  85; 6HR PCP: TRACE;

BARNWELL       FAIR      77  72  83 SW5       29.79S
AIKEN          FAIR      70  66  88 SW5       29.82R
MANNING        FAIR      77  64  65 SW7       29.76S
COLUMBIA       PTCLDY    74  63  68 SW7       29.75S
6HR MIN TEMP:  74; 6HR MAX TEMP:  85;

SUMTER         MOCLDY    75  67  75 SW10      29.73S
6HR MIN TEMP:  75; 6HR MAX TEMP:  84; 6HR PCP: TRACE;

FLORENCE       MOCLDY    78  65  63 SW8       29.74S
6HR MIN TEMP:  78; 6HR MAX TEMP:  85;

MYRTLE BEACH   PTCLDY    75  66  73 S7        29.78R
N MYRTLE BEACH CLOUDY    73  70  90 S8        29.76F
6HR MIN TEMP:  67; 6HR MAX TEMP:  75; 6HR PCP:  1.01;


$$

GAZ063-065-086>088-099>101-113>116-118-119-134>141-150-040100-
...SOUTHEAST GEORGIA...

CITY           SKY/WX    TMP DP  RH WIND       PRES   REMARKS
SAVANNAH ARPT  CLOUDY    81  66  60 S12       29.78S THUNDER
6HR MIN TEMP:  82; 6HR MAX TEMP:  88;

HUNTER AAF     TSTM      81  70  69 SW8       29.77R
6HR MIN TEMP:  82; 6HR MAX TEMP:  88;

FORT STEWART   LGT RAIN  77  68  73 SW13G22   29.79R
6HR MIN TEMP:  80; 6HR MAX TEMP:  87; 6HR PCP: TRACE;

STATESBORO     TSTM      77  72  84 W29G47    29.88R
SYLVANIA       RAIN      76  69  80 W3        29.82R
CLAXTON        NOT AVBL

...CSRA...CENTRAL AND FAR SOUTHEAST GEORGIA...

CITY           SKY/WX    TMP DP  RH WIND       PRES   REMARKS
THOMSON        PTCLDY    74  70  89 SW3       29.84R
AUGUSTA-BUSH   PTCLDY    75  68  78 SW7       29.77S
6HR MIN TEMP:  70; 6HR MAX TEMP:  83; 6HR PCP:  0.03;

AUGUSTA-DANIEL CLEAR     75  66  73 VRB3      29.79S
SWAINSBORO     CLOUDY    70  68  94 CALM      29.83R
VIDALIA        CLOUDY    68  63  83 S6        29.83F
EASTMAN        CLOUDY    74  66  76 S6        29.86R
HAZLEHURST     CLOUDY    68  68 100 S9        29.84R
ALMA           LGT RAIN  70  67  90 NW9       29.84R FOG
6HR MIN TEMP:  70; 6HR MAX TEMP:  85; 6HR PCP:  0.02;

WAYCROSS       MOCLDY    75  67  76 W7        29.82R
JESUP          FAIR      79  72  78 CALM      29.82R
BAXLEY         CLOUDY    70  70 100 NW6       29.85R THUNDER
BRUNSWICK      CLOUDY    81  73  78 CALM      29.83R
SAINT SIMONS   MOCLDY    81  67  62 W3        29.81S
6HR MIN TEMP:  81; 6HR MAX TEMP:  88;


$$

SCZ027-028-034-036>038-045-046-048>050-GAZ119-141-040100-
...LAKE AND SUPPLEMENTAL COASTAL OBSERVATIONS...

STATION/POSITION TIME  TEMP    WIND        PRES    WAVE   SWELL
                       AIR SEA DIR/SP/G            HT/PER HT/PER/DIR
                 (UTC) (F)     (DEG/KT/KT) (MB)    (FT/S) (FT/S/D)
WINYAH BAY       2345   76     220/ 11     1007.0S
LAKE MURRAY      2300   79     240/ 11/ 14 1006.8F
ACE BASIN NERRS  2300   75     350/  2     1009.0R
FORT PULASKI     0000      75              1009.3R
SAPELO ISLAND    0000   76        CALM     1010.0S

$$

ANZ835-935-AMZ111-154-330-350-352-354-370-450-454-472-040100-
...C-MAN AND BUOY OBSERVATIONS...

STATION/POSITION TIME  TEMP    WIND        PRES    WAVE   SWELL
                       AIR SEA DIR/SP/G            HT/PER HT/PER/DIR
                 (UTC) (F)     (DEG/KT/KT) (MB)    (FT/S) (FT/S/D)
BUOY 41004       2350   75 75  210/ 16/ 17 1008.0F   4/ 8   3/ 8
BUOY 41008       NOT AVBL
FOLLY BEACH CMAN 0000   75     230/ 11/ 14 1009.1R
CAPERS NEARSHORE 2308   75 74  220/ 14/ 17 1008.1R
FRIPP NEARSHORE  0008   76 74  190/ 14/ 17 1008.0R


STATION/POSITION TIME  TEMP    WIND        PRES    WAVE   SWELL
                       AIR SEA DIR/SP/G            HT/PER HT/PER/DIR
                 (UTC) (F)     (DEG/KT/KT) (MB)    (FT/S) (FT/S/D)
5E ST. MARYS GA  2321      74                N/A     3/ 6
FRYING PAN BUOY  0000   74 74  200/ 16/ 17 1008.3F
BUOY 41025       2350   73 72  200/ 19/ 21 1007.9F   5/ 4   2/180/ 7
CAPE LOOKOUT NC  0000   70     200/ 10/ 13 1007.5F
BUOY 41002       2350   69 74   40/  4/  6 1012.7F   4/ 6   3/180/ 6
BUOY 41010       2320   78 79  210/  8/ 10 1011.9F
ST AUGUSTINE FL  0000   80 71  210/  4/  5 1011.4R


$$




USA.gov is the U.S. government's official web portal to all federal, state and local government web resources and services.